User: anonymous   Login
Location: Unspecified
(0.0000°N, 0.0000°E)
Time: 17:07:22
(UTC+00:00)
Language:

COSMOS 1867 COOLANT - Orbit

View from above orbital plane
View from above orbital plane
View from above satellite
View from above satellite

Ground track
Ground track

The orbit is defined by the following mean orbital elements,

1 39640U          26087.09940860 +.00000000 +00000-0 +15129-3 0 00005
2 39640  65.0087 231.7370 0016453 282.1220  77.8023 14.34205275    09
Epoch (UTC): 28 March 2026 02:23:08
Eccentricity: 0.0016453
inclination: 65.0087°
perigee height: 766 km
apogee height: 789 km
right ascension of ascending node: 231.7370°
argument of perigee: 282.1220°
revolutions per day: 14.34205275
mean anomaly at epoch: 77.8023°

The dashed part of the orbit path shows where the satellite is in the earth's shadow,  

DLR